Location: Deerlick Astronomy Village
(33.5614°N, 82.7631°W)
Time: 19:20:36
(UTC-05:00)

CAS-4A - Pass Details

Date: 01 November 2020
Orbit: 528 x 543 km, 43.0° (Epoch: 30 November)

Event Time Altitude Azimuth Distance (km) Brightness Sun altitude
Exits shadow 05:22:52 28° 333° (NNW) 1,010 ? -18.7°
Maximum altitude 05:24:24 40° 22° (NNE) 783 ? -18.4°
Drops below altitude 10° 05:28:14 10° 93° (E) 1,767 ? -17.6°
Sets 05:30:33 0° 101° (E) 2,653 ? -17.1°
